Year,Month,Day,Hour,Minute,Value (Times are PST for temperature in C)
2018,05,22,07,07,13.20
2018,05,22,07,08,13.20
2018,05,22,07,09,13.20
2018,05,22,07,10,13.20
2018,05,22,07,11,13.20
2018,05,22,07,12,13.20
2018,05,22,07,13,13.20
2018,05,22,07,14,13.20
2018,05,22,07,15,13.20
2018,05,22,07,16,13.20
2018,05,22,07,17,13.20
2018,05,22,07,18,13.20
2018,05,22,07,19,13.20
2018,05,22,07,20,13.20
2018,05,22,07,21,13.20
2018,05,22,07,22,13.30
2018,05,22,07,23,13.30
2018,05,22,07,24,13.30
2018,05,22,07,25,13.30
2018,05,22,07,26,13.30
2018,05,22,07,27,13.30
2018,05,22,07,28,13.30
2018,05,22,07,29,13.40
2018,05,22,07,30,13.40
2018,05,22,07,31,13.40
2018,05,22,07,32,13.40
2018,05,22,07,33,13.40
2018,05,22,07,34,13.40
2018,05,22,07,35,13.40
2018,05,22,07,36,13.40
2018,05,22,07,37,13.40
2018,05,22,07,38,13.50
2018,05,22,07,39,13.50
2018,05,22,07,40,13.50
2018,05,22,07,41,13.50
2018,05,22,07,42,13.50
2018,05,22,07,43,13.50
2018,05,22,07,44,13.50
2018,05,22,07,45,13.50
2018,05,22,07,46,13.50
2018,05,22,07,47,13.50
2018,05,22,07,48,13.50
2018,05,22,08,04,14.10
2018,05,22,08,05,14.10
2018,05,22,08,06,14.10
2018,05,22,08,07,14.10
2018,05,22,08,08,14.20
2018,05,22,08,09,14.20
2018,05,22,08,10,14.30
2018,05,22,08,11,14.30
2018,05,22,08,12,14.30
2018,05,22,08,13,14.30
2018,05,22,08,14,14.40
2018,05,22,08,15,14.40
2018,05,22,08,16,14.40
2018,05,22,08,17,14.40
2018,05,22,08,18,14.40
2018,05,22,08,19,14.40
2018,05,22,08,20,14.40
2018,05,22,08,21,14.40
2018,05,22,08,22,14.40
2018,05,22,08,23,14.40
2018,05,22,08,24,14.40
2018,05,22,08,25,14.40
2018,05,22,08,41,14.10
2018,05,22,08,42,14.10
2018,05,22,08,43,14.00
2018,05,22,08,44,14.00
2018,05,22,08,45,14.00
2018,05,22,08,46,14.00
2018,05,22,08,47,13.90
2018,05,22,08,48,13.90
2018,05,22,08,49,13.90
2018,05,22,08,50,13.90
2018,05,22,08,51,13.90
2018,05,22,08,52,14.00
2018,05,22,08,53,14.00
2018,05,22,08,54,14.00
2018,05,22,08,55,14.00
2018,05,22,08,56,14.00
2018,05,22,08,57,14.00
2018,05,22,08,58,13.90
2018,05,22,08,59,13.90
2018,05,22,09,00,13.80
2018,05,22,09,01,13.80
2018,05,22,09,02,13.70
2018,05,22,09,03,13.70
2018,05,22,09,04,13.70
2018,05,22,09,05,13.60
2018,05,22,09,06,13.60
2018,05,22,09,07,13.60
2018,05,22,09,08,13.60
2018,05,22,09,09,13.60
2018,05,22,09,10,13.60
2018,05,22,09,11,13.70
2018,05,22,09,12,13.70
2018,05,22,09,13,13.80
2018,05,22,09,14,13.80
2018,05,22,09,15,13.80
2018,05,22,09,16,13.90
2018,05,22,09,17,13.90
2018,05,22,09,18,13.90
2018,05,22,09,19,13.90
2018,05,22,09,20,13.90
2018,05,22,09,21,13.80
2018,05,22,09,22,13.80
2018,05,22,09,23,13.80
2018,05,22,09,24,13.90
2018,05,22,09,25,13.90
2018,05,22,09,26,13.90
2018,05,22,09,27,14.00
2018,05,22,09,28,14.00
2018,05,22,09,29,14.10
2018,05,22,09,30,14.10
2018,05,22,09,31,14.10
2018,05,22,09,32,14.10
2018,05,22,09,33,14.10
2018,05,22,09,34,14.10
2018,05,22,09,35,14.10
2018,05,22,09,36,14.10
2018,05,22,09,37,14.10
2018,05,22,09,38,14.20
2018,05,22,09,39,14.20
2018,05,22,09,40,14.20
2018,05,22,09,41,14.30
2018,05,22,09,42,14.30
2018,05,22,09,43,14.30
2018,05,22,09,44,14.40
2018,05,22,09,45,14.40
2018,05,22,09,46,14.40
2018,05,22,09,47,14.50
2018,05,22,09,48,14.50
2018,05,22,09,49,14.60
2018,05,22,09,50,14.70
2018,05,22,09,51,14.70
2018,05,22,09,52,14.80
2018,05,22,09,53,14.80
2018,05,22,09,54,14.80
2018,05,22,09,55,14.80
2018,05,22,09,56,14.80
2018,05,22,09,57,14.80
2018,05,22,09,58,14.80
2018,05,22,09,59,14.80
2018,05,22,10,00,14.90
2018,05,22,10,01,14.90
2018,05,22,10,02,14.90
2018,05,22,10,03,14.90
2018,05,22,10,04,14.90
2018,05,22,10,05,15.00
2018,05,22,10,06,15.00
2018,05,22,10,07,15.10
2018,05,22,10,08,15.00
2018,05,22,10,09,15.00
2018,05,22,10,10,15.00
2018,05,22,10,11,14.90
2018,05,22,10,12,14.80
2018,05,22,10,13,14.80
2018,05,22,10,14,14.80
2018,05,22,10,15,14.90
2018,05,22,10,16,14.90
2018,05,22,10,17,14.90
2018,05,22,10,18,15.00
2018,05,22,10,19,15.10
2018,05,22,10,20,15.10
2018,05,22,10,21,15.10
2018,05,22,10,22,15.10
2018,05,22,10,23,15.10
2018,05,22,10,24,15.00
2018,05,22,10,25,14.90
2018,05,22,10,26,14.80
2018,05,22,10,27,14.70
2018,05,22,10,28,14.50
2018,05,22,10,29,14.30
2018,05,22,10,30,14.20
2018,05,22,10,31,14.10
2018,05,22,10,32,14.10
2018,05,22,10,33,14.10
2018,05,22,10,34,14.10
2018,05,22,10,35,14.10
2018,05,22,10,36,14.10
2018,05,22,10,37,14.10
2018,05,22,10,38,14.10
2018,05,22,10,39,14.10
2018,05,22,10,40,14.10
2018,05,22,10,41,14.10
2018,05,22,10,42,14.20
2018,05,22,10,43,14.20
2018,05,22,10,44,14.10
2018,05,22,10,45,14.00
2018,05,22,10,46,13.90
2018,05,22,10,47,13.80
2018,05,22,10,48,13.80
2018,05,22,10,49,13.80
2018,05,22,10,50,13.80
2018,05,22,10,51,13.90
2018,05,22,10,52,13.90
2018,05,22,10,53,13.90
2018,05,22,10,54,13.90
2018,05,22,10,55,13.90
2018,05,22,10,56,14.00
2018,05,22,10,57,14.10
2018,05,22,10,58,14.10
2018,05,22,10,59,14.20
2018,05,22,11,00,14.30
2018,05,22,11,01,14.30
2018,05,22,11,02,14.40
2018,05,22,11,03,14.40
2018,05,22,11,04,14.50
2018,05,22,11,05,14.60
2018,05,22,11,06,14.60
2018,05,22,11,07,14.60
2018,05,22,11,08,14.70
2018,05,22,11,09,14.80
2018,05,22,11,10,14.80
2018,05,22,11,11,14.90
2018,05,22,11,12,15.00
2018,05,22,11,13,15.00
2018,05,22,11,14,15.10
2018,05,22,11,15,15.10
2018,05,22,11,16,15.10
2018,05,22,11,17,15.20
2018,05,22,11,18,15.30
2018,05,22,11,19,15.30
2018,05,22,11,20,15.30
2018,05,22,11,21,15.30
2018,05,22,11,22,15.30
2018,05,22,11,23,15.30
2018,05,22,11,24,15.30
2018,05,22,11,25,15.30
2018,05,22,11,26,15.30
2018,05,22,11,27,15.30
2018,05,22,11,28,15.40
2018,05,22,11,29,15.30
2018,05,22,11,30,15.30
2018,05,22,11,31,15.30
2018,05,22,11,32,15.30
2018,05,22,11,33,15.30
2018,05,22,11,34,15.30
2018,05,22,11,35,15.40
2018,05,22,11,36,15.40
2018,05,22,11,37,15.40
2018,05,22,11,38,15.40
2018,05,22,11,39,15.40
2018,05,22,11,40,15.40
2018,05,22,11,41,15.50
2018,05,22,11,42,15.50
2018,05,22,11,43,15.50
2018,05,22,11,44,15.50
2018,05,22,11,45,15.60
2018,05,22,11,46,15.60
2018,05,22,11,47,15.60
2018,05,22,11,48,15.70
2018,05,22,11,49,15.70
2018,05,22,11,50,15.70
2018,05,22,11,51,15.70
2018,05,22,11,52,15.70
2018,05,22,11,53,15.70
2018,05,22,11,54,15.70
2018,05,22,11,55,15.80
2018,05,22,11,56,15.80
2018,05,22,11,57,15.80
2018,05,22,11,58,15.80
2018,05,22,11,59,15.70
2018,05,22,12,00,15.70
2018,05,22,12,01,15.70
2018,05,22,12,02,15.70
2018,05,22,12,03,15.60
2018,05,22,12,04,15.60
2018,05,22,12,05,15.60
2018,05,22,12,06,15.70
2018,05,22,12,07,15.70
2018,05,22,12,08,15.80
2018,05,22,12,09,15.80
2018,05,22,12,10,15.70
2018,05,22,12,11,15.70
2018,05,22,12,12,15.70
2018,05,22,12,13,15.70
2018,05,22,12,14,15.80
2018,05,22,12,15,15.80
2018,05,22,12,16,15.80
2018,05,22,12,17,15.70
2018,05,22,12,18,15.70
2018,05,22,12,19,15.70
2018,05,22,12,20,15.70
2018,05,22,12,21,15.70
2018,05,22,12,22,15.70
2018,05,22,12,23,15.70
2018,05,22,12,24,15.60
2018,05,22,12,25,15.60
2018,05,22,12,26,15.60
2018,05,22,12,27,15.70
2018,05,22,12,28,15.70
2018,05,22,12,29,15.70
2018,05,22,12,30,15.70
2018,05,22,12,31,15.80
2018,05,22,12,32,15.80
2018,05,22,12,33,15.80
2018,05,22,12,34,15.80
2018,05,22,12,35,15.90
2018,05,22,12,36,15.90
2018,05,22,12,37,15.90
2018,05,22,12,38,15.90
2018,05,22,12,39,15.90
2018,05,22,12,40,15.90
2018,05,22,12,41,15.90
2018,05,22,12,42,15.90
2018,05,22,12,43,16.00
2018,05,22,12,44,16.10
2018,05,22,12,45,16.20
2018,05,22,12,46,16.20
2018,05,22,12,47,16.30
2018,05,22,12,48,16.30
2018,05,22,12,49,16.30
2018,05,22,12,50,16.30
2018,05,22,12,51,16.30
2018,05,22,12,52,16.30
2018,05,22,12,53,16.40
2018,05,22,12,54,16.40
2018,05,22,12,55,16.40
2018,05,22,12,56,16.30
2018,05,22,12,57,16.30
2018,05,22,12,58,16.30
2018,05,22,12,59,16.30
2018,05,22,13,00,16.30
2018,05,22,13,01,16.30
2018,05,22,13,02,16.20
2018,05,22,13,03,16.30
2018,05,22,13,04,16.30
2018,05,22,13,05,16.40
2018,05,22,13,06,16.40
2018,05,22,13,07,16.50
2018,05,22,13,08,16.60
2018,05,22,13,09,16.70
2018,05,22,13,10,16.80
2018,05,22,13,11,16.90
2018,05,22,13,12,16.90
2018,05,22,13,13,17.00
2018,05,22,13,14,17.00
2018,05,22,13,15,17.00
2018,05,22,13,16,17.00
2018,05,22,13,17,16.90
2018,05,22,13,18,16.90
2018,05,22,13,19,16.80
2018,05,22,13,20,16.80
2018,05,22,13,21,16.90
2018,05,22,13,22,16.90
2018,05,22,13,23,17.00
2018,05,22,13,24,17.10
2018,05,22,13,25,17.10
2018,05,22,13,26,17.10
2018,05,22,13,27,17.00
2018,05,22,13,28,17.00
2018,05,22,13,29,17.00
2018,05,22,13,30,17.00
2018,05,22,13,31,17.00
2018,05,22,13,32,17.00
2018,05,22,13,33,16.90
2018,05,22,13,34,16.80
2018,05,22,13,35,16.70
2018,05,22,13,36,16.70
2018,05,22,13,37,16.70
2018,05,22,13,38,16.70
2018,05,22,13,39,16.70
2018,05,22,13,40,16.70
2018,05,22,13,41,16.60
2018,05,22,13,42,16.60
2018,05,22,13,43,16.60
2018,05,22,13,44,16.60
2018,05,22,13,45,16.50
2018,05,22,13,46,16.40
2018,05,22,13,47,16.40
2018,05,22,13,48,16.30
2018,05,22,13,49,16.30
2018,05,22,13,50,16.30
2018,05,22,13,51,16.30
2018,05,22,13,52,16.40
2018,05,22,13,53,16.50
2018,05,22,13,54,16.60
2018,05,22,13,55,16.70
2018,05,22,13,56,16.70
2018,05,22,13,57,16.70
2018,05,22,13,58,16.70
2018,05,22,13,59,16.70
2018,05,22,14,00,16.60
2018,05,22,14,01,16.70
2018,05,22,14,02,16.70
2018,05,22,14,03,16.70
2018,05,22,14,04,16.80
2018,05,22,14,05,16.80
2018,05,22,14,06,16.90
2018,05,22,14,07,16.90
2018,05,22,14,08,17.00
2018,05,22,14,09,17.10
2018,05,22,14,10,17.10
2018,05,22,14,11,17.10
2018,05,22,14,12,17.10
2018,05,22,14,13,17.10
2018,05,22,14,14,17.10
2018,05,22,14,15,17.10
2018,05,22,14,16,17.10
2018,05,22,14,17,17.10
2018,05,22,14,18,17.00
2018,05,22,14,19,16.80
2018,05,22,14,20,16.80
2018,05,22,14,21,16.70
2018,05,22,14,22,16.60
2018,05,22,14,23,16.50
2018,05,22,14,24,16.40
2018,05,22,14,25,16.20
2018,05,22,14,26,16.10
2018,05,22,14,27,16.10
2018,05,22,14,28,16.00
2018,05,22,14,29,15.90
2018,05,22,14,30,15.90
2018,05,22,14,31,15.90
2018,05,22,14,32,15.90
2018,05,22,14,33,15.90
2018,05,22,14,34,16.00
2018,05,22,14,35,16.00
2018,05,22,14,36,16.10
2018,05,22,14,37,16.20
2018,05,22,14,38,16.30
2018,05,22,14,39,16.40
2018,05,22,14,40,16.50
2018,05,22,14,41,16.50
2018,05,22,14,42,16.60
2018,05,22,14,43,16.60
2018,05,22,14,44,16.60
2018,05,22,14,45,16.60
2018,05,22,14,46,16.70
2018,05,22,14,47,16.80
2018,05,22,14,48,16.90
2018,05,22,14,49,17.00
2018,05,22,14,50,17.10
2018,05,22,14,51,17.30
2018,05,22,14,52,17.30
2018,05,22,14,53,17.40
2018,05,22,14,54,17.40
2018,05,22,14,55,17.50
2018,05,22,14,56,17.50
2018,05,22,14,57,17.60
2018,05,22,14,58,17.70
2018,05,22,14,59,17.70
2018,05,22,15,00,17.80
2018,05,22,15,01,17.80
2018,05,22,15,02,17.90
2018,05,22,15,03,17.90
2018,05,22,15,04,17.80
2018,05,22,15,05,17.60
2018,05,22,15,06,17.50
2018,05,22,15,07,17.50
2018,05,22,15,08,17.40
2018,05,22,15,09,17.40
2018,05,22,15,10,17.40
2018,05,22,15,11,17.40
2018,05,22,15,12,17.40
2018,05,22,15,13,17.50
2018,05,22,15,14,17.60
2018,05,22,15,15,17.60
2018,05,22,15,16,17.60
2018,05,22,15,17,17.60
2018,05,22,15,18,17.60
2018,05,22,15,19,17.60
2018,05,22,15,20,17.70
2018,05,22,15,21,17.70
2018,05,22,15,22,17.80
2018,05,22,15,23,18.00
2018,05,22,15,24,18.10
2018,05,22,15,25,18.20
2018,05,22,15,26,18.30
2018,05,22,15,27,18.30
2018,05,22,15,28,18.30
2018,05,22,15,29,18.40
2018,05,22,15,30,18.40
2018,05,22,15,31,18.50
2018,05,22,15,32,18.40
2018,05,22,15,33,18.50
2018,05,22,15,34,18.50
2018,05,22,15,35,18.50
2018,05,22,15,36,18.50
2018,05,22,15,37,18.40
2018,05,22,15,38,18.40
2018,05,22,15,39,18.30
2018,05,22,15,40,18.20
2018,05,22,15,41,18.20
2018,05,22,15,42,18.10
2018,05,22,15,43,18.10
2018,05,22,15,44,18.10
2018,05,22,15,45,18.10
2018,05,22,15,46,18.20
2018,05,22,15,47,18.20
2018,05,22,15,48,18.20
2018,05,22,15,49,18.20
2018,05,22,15,50,18.20
2018,05,22,15,51,18.30
2018,05,22,15,52,18.30
2018,05,22,15,53,18.30
2018,05,22,15,54,18.30
2018,05,22,15,55,18.30
2018,05,22,15,56,18.30
2018,05,22,15,57,18.40
2018,05,22,15,58,18.50
2018,05,22,15,59,18.50
2018,05,22,16,00,18.70
2018,05,22,16,01,18.80
2018,05,22,16,02,18.90
2018,05,22,16,03,19.00
2018,05,22,16,04,19.00
2018,05,22,16,05,19.10
2018,05,22,16,06,19.10
2018,05,22,16,07,19.20
2018,05,22,16,08,19.30
2018,05,22,16,09,19.40
2018,05,22,16,10,19.40
2018,05,22,16,11,19.50
2018,05,22,16,12,19.50
2018,05,22,16,13,19.50
2018,05,22,16,14,19.30
2018,05,22,16,15,19.20
2018,05,22,16,16,19.10
2018,05,22,16,17,19.00
2018,05,22,16,18,19.00
2018,05,22,16,19,19.00
2018,05,22,16,20,19.00
2018,05,22,16,21,19.00
2018,05,22,16,22,18.90
2018,05,22,16,23,18.90
2018,05,22,16,24,18.80
2018,05,22,16,25,18.80
2018,05,22,16,26,18.90
2018,05,22,16,27,19.00
2018,05,22,16,28,19.00
2018,05,22,16,29,19.10
2018,05,22,16,30,19.10
2018,05,22,16,31,19.10
2018,05,22,16,32,19.10
2018,05,22,16,33,19.10
2018,05,22,16,34,19.20
2018,05,22,16,35,19.30
2018,05,22,16,36,19.30
2018,05,22,16,37,19.40
2018,05,22,16,38,19.40
2018,05,22,16,39,19.40
2018,05,22,16,40,19.40
2018,05,22,16,41,19.30
2018,05,22,16,42,19.30
2018,05,22,16,43,19.30
2018,05,22,16,44,19.30
2018,05,22,16,45,19.20
2018,05,22,16,46,19.20
2018,05,22,16,47,19.10
2018,05,22,16,48,19.10
2018,05,22,16,49,19.10
2018,05,22,16,50,19.10
2018,05,22,16,51,19.10
2018,05,22,16,52,19.20
2018,05,22,16,53,19.20
2018,05,22,16,54,19.20
2018,05,22,16,55,19.20
2018,05,22,16,56,19.20
2018,05,22,16,57,19.20
2018,05,22,16,58,19.20
2018,05,22,16,59,19.20
2018,05,22,17,00,19.20
2018,05,22,17,01,19.20
2018,05,22,17,02,19.10
2018,05,22,17,03,19.20
2018,05,22,17,04,19.20
2018,05,22,17,05,19.20
2018,05,22,17,06,19.20
2018,05,22,17,07,19.20
2018,05,22,17,08,19.20
2018,05,22,17,09,19.20
2018,05,22,17,10,19.30
2018,05,22,17,11,19.30
2018,05,22,17,12,19.30
2018,05,22,17,13,19.20
2018,05,22,17,14,19.20
2018,05,22,17,15,19.20
2018,05,22,17,16,19.20
2018,05,22,17,17,19.10
2018,05,22,17,18,19.10
2018,05,22,17,19,19.10
2018,05,22,17,20,19.00
2018,05,22,17,21,18.90
2018,05,22,17,22,18.80
2018,05,22,17,23,18.80
2018,05,22,17,24,18.80
2018,05,22,17,25,18.80
2018,05,22,17,26,18.70
2018,05,22,17,27,18.60
2018,05,22,17,28,18.60
2018,05,22,17,29,18.50
2018,05,22,17,30,18.50
2018,05,22,17,31,18.40
2018,05,22,17,32,18.40
2018,05,22,17,33,18.30
2018,05,22,17,34,18.30
2018,05,22,17,35,18.30
2018,05,22,17,36,18.30
2018,05,22,17,37,18.20
2018,05,22,17,38,18.20
2018,05,22,17,39,18.10
2018,05,22,17,40,18.00
2018,05,22,17,41,17.90
2018,05,22,17,42,17.90
2018,05,22,17,43,17.90
2018,05,22,17,44,17.90
2018,05,22,17,45,18.00
2018,05,22,17,46,18.00
2018,05,22,17,47,18.00
2018,05,22,17,48,17.90
2018,05,22,17,49,17.90
2018,05,22,17,50,17.90
2018,05,22,17,51,17.80
2018,05,22,17,52,17.80
2018,05,22,17,53,17.70
2018,05,22,17,54,17.70
2018,05,22,17,55,17.70
2018,05,22,17,56,17.70
2018,05,22,17,57,17.70
2018,05,22,17,58,17.70
2018,05,22,17,59,17.70
2018,05,22,18,00,17.70
2018,05,22,18,01,17.70
2018,05,22,18,02,17.80
2018,05,22,18,03,17.80
2018,05,22,18,04,17.90
2018,05,22,18,05,18.00
2018,05,22,18,06,18.00
2018,05,22,18,07,18.10
2018,05,22,18,08,18.20
2018,05,22,18,09,18.30
2018,05,22,18,10,18.30
2018,05,22,18,11,18.30
2018,05,22,18,12,18.30
2018,05,22,18,13,18.30
2018,05,22,18,14,18.30
2018,05,22,18,15,18.30
2018,05,22,18,16,18.30
2018,05,22,18,17,18.30
2018,05,22,18,18,18.30
2018,05,22,18,19,18.30
2018,05,22,18,20,18.30
2018,05,22,18,21,18.30
2018,05,22,18,22,18.40
2018,05,22,18,23,18.40
2018,05,22,18,24,18.40
2018,05,22,18,25,18.50
2018,05,22,18,26,18.50
2018,05,22,18,27,18.60
2018,05,22,18,28,18.60
2018,05,22,18,29,18.70
2018,05,22,18,30,18.70
2018,05,22,18,31,18.70
2018,05,22,18,32,18.70
2018,05,22,18,33,18.70
2018,05,22,18,34,18.70
2018,05,22,18,35,18.70
2018,05,22,18,36,18.70
2018,05,22,18,37,18.70
2018,05,22,18,38,18.70
2018,05,22,18,39,18.70
2018,05,22,18,40,18.80
2018,05,22,18,41,18.70
2018,05,22,18,42,18.70
2018,05,22,18,43,18.70
2018,05,22,18,44,18.60
2018,05,22,18,45,18.60
2018,05,22,18,46,18.60
2018,05,22,18,47,18.60
2018,05,22,18,48,18.60
2018,05,22,18,49,18.60
2018,05,22,18,50,18.60
2018,05,22,18,51,18.70
2018,05,22,18,52,18.70
2018,05,22,18,53,18.70
2018,05,22,18,54,18.70
2018,05,22,18,55,18.70
2018,05,22,18,56,18.60
2018,05,22,18,57,18.60
2018,05,22,18,58,18.50
2018,05,22,18,59,18.50
2018,05,22,19,00,18.40
2018,05,22,19,01,18.30
2018,05,22,19,02,18.20
2018,05,22,19,03,18.10
2018,05,22,19,04,18.10
2018,05,22,19,05,18.00
2018,05,22,19,06,18.00
2018,05,22,19,07,18.00
2018,05,22,19,08,18.00
2018,05,22,19,09,18.00
2018,05,22,19,10,18.00
2018,05,22,19,11,18.10
2018,05,22,19,12,18.10
2018,05,22,19,13,18.20
2018,05,22,19,14,18.20
2018,05,22,19,15,18.20
2018,05,22,19,16,18.30
2018,05,22,19,17,18.30
2018,05,22,19,18,18.30
2018,05,22,19,19,18.30
2018,05,22,19,20,18.30
2018,05,22,19,21,18.40
2018,05,22,19,22,18.40
2018,05,22,19,23,18.40
2018,05,22,19,24,18.40
2018,05,22,19,25,18.40
2018,05,22,19,26,18.40
2018,05,22,19,27,18.40
2018,05,22,19,28,18.40
2018,05,22,19,29,18.40
2018,05,22,19,30,18.30
2018,05,22,19,31,18.30
2018,05,22,19,32,18.20
2018,05,22,19,33,18.10
2018,05,22,19,34,18.00
2018,05,22,19,35,17.90
2018,05,22,19,36,17.80
2018,05,22,19,37,17.60
2018,05,22,19,38,17.50
2018,05,22,19,39,17.40
2018,05,22,19,40,17.20
2018,05,22,19,41,17.20
2018,05,22,19,42,17.10
2018,05,22,19,43,17.00
2018,05,22,19,44,16.90
2018,05,22,19,45,16.90
2018,05,22,19,46,16.80
2018,05,22,19,47,16.80
2018,05,22,19,48,16.70
2018,05,22,19,49,16.70
2018,05,22,19,50,16.70
2018,05,22,19,51,16.70
2018,05,22,19,52,16.60
2018,05,22,19,53,16.60
2018,05,22,19,54,16.50
2018,05,22,19,55,16.40
2018,05,22,19,56,16.40
2018,05,22,19,57,16.30
2018,05,22,19,58,16.30
2018,05,22,19,59,16.30
2018,05,22,20,00,16.30
2018,05,22,20,01,16.30
2018,05,22,20,02,16.30
2018,05,22,20,03,16.30
2018,05,22,20,04,16.30
2018,05,22,20,05,16.30
2018,05,22,20,06,16.30
2018,05,22,20,07,16.30
2018,05,22,20,08,16.30
2018,05,22,20,09,16.30
2018,05,22,20,10,16.30
2018,05,22,20,11,16.30
2018,05,22,20,12,16.30
2018,05,22,20,13,16.20
2018,05,22,20,14,16.20
2018,05,22,20,15,16.20
2018,05,22,20,16,16.20
2018,05,22,20,17,16.20
2018,05,22,20,18,16.20
2018,05,22,20,19,16.20
2018,05,22,20,20,16.20
2018,05,22,20,21,16.20
2018,05,22,20,22,16.20
2018,05,22,20,23,16.20
2018,05,22,20,24,16.20
2018,05,22,20,25,16.20
2018,05,22,20,26,16.20
2018,05,22,20,27,16.20
2018,05,22,20,28,16.20
2018,05,22,20,29,16.20
2018,05,22,20,30,16.20
2018,05,22,20,31,16.30
2018,05,22,20,32,16.30
2018,05,22,20,33,16.30
2018,05,22,20,34,16.30
2018,05,22,20,35,16.30
2018,05,22,20,36,16.30
2018,05,22,20,37,16.30
2018,05,22,20,38,16.40
2018,05,22,20,39,16.40
2018,05,22,20,40,16.40
2018,05,22,20,41,16.40
2018,05,22,20,42,16.40
2018,05,22,20,43,16.40
2018,05,22,20,44,16.50
2018,05,22,20,45,16.50
2018,05,22,20,46,16.50
2018,05,22,20,47,16.50
2018,05,22,20,48,16.50
2018,05,22,20,49,16.50
2018,05,22,20,50,16.50
2018,05,22,20,51,16.60
2018,05,22,20,52,16.60
2018,05,22,20,53,16.60
2018,05,22,20,54,16.60
2018,05,22,20,55,16.60
2018,05,22,20,56,16.70
2018,05,22,20,57,16.70
2018,05,22,20,58,16.70
2018,05,22,20,59,16.70
2018,05,22,21,00,16.70
2018,05,22,21,01,16.70
2018,05,22,21,02,16.70
2018,05,22,21,03,16.70
2018,05,22,21,04,16.70
2018,05,22,21,05,16.70
2018,05,22,21,06,16.70
2018,05,22,21,07,16.70
2018,05,22,21,08,16.70
2018,05,22,21,09,16.70
2018,05,22,21,10,16.70
2018,05,22,21,11,16.70
2018,05,22,21,12,16.70
2018,05,22,21,13,16.70
2018,05,22,21,14,16.70
2018,05,22,21,15,16.70
2018,05,22,21,16,16.70
2018,05,22,21,17,16.70
2018,05,22,21,18,16.70
2018,05,22,21,19,16.70
2018,05,22,21,20,16.60
2018,05,22,21,21,16.60
2018,05,22,21,22,16.60
2018,05,22,21,23,16.60
2018,05,22,21,24,16.60
2018,05,22,21,25,16.60
2018,05,22,21,26,16.60
2018,05,22,21,27,16.60
2018,05,22,21,28,16.60
2018,05,22,21,29,16.60
2018,05,22,21,30,16.60
2018,05,22,21,31,16.50
2018,05,22,21,32,16.50
2018,05,22,21,33,16.50
2018,05,22,21,34,16.50
2018,05,22,21,35,16.50
2018,05,22,21,36,16.40
2018,05,22,21,37,16.40
2018,05,22,21,38,16.40
2018,05,22,21,39,16.40
2018,05,22,21,40,16.40
2018,05,22,21,41,16.40
2018,05,22,21,42,16.30
2018,05,22,21,43,16.30
2018,05,22,21,44,16.30
2018,05,22,21,45,16.30
2018,05,22,21,46,16.30
2018,05,22,21,47,16.30
2018,05,22,21,48,16.30
2018,05,22,21,49,16.20
2018,05,22,21,50,16.20
2018,05,22,21,51,16.20
2018,05,22,21,52,16.20
2018,05,22,21,53,16.20
2018,05,22,21,54,16.10
2018,05,22,21,55,16.10
2018,05,22,21,56,16.10
2018,05,22,21,57,16.10
2018,05,22,21,58,16.00
2018,05,22,21,59,16.00
2018,05,22,22,00,16.00
2018,05,22,22,01,15.90
2018,05,22,22,02,15.90
2018,05,22,22,03,15.90
2018,05,22,22,04,15.90
2018,05,22,22,05,15.90
2018,05,22,22,06,15.90
2018,05,22,22,07,15.80
2018,05,22,22,08,15.80
2018,05,22,22,09,15.80
2018,05,22,22,10,15.80
2018,05,22,22,11,15.70
2018,05,22,22,12,15.70
2018,05,22,22,13,15.70
2018,05,22,22,14,15.60
2018,05,22,22,15,15.60
2018,05,22,22,16,15.60
2018,05,22,22,17,15.50
2018,05,22,22,18,15.50
2018,05,22,22,19,15.50
2018,05,22,22,20,15.40
2018,05,22,22,21,15.40
2018,05,22,22,22,15.40
2018,05,22,22,23,15.30
2018,05,22,22,24,15.30
2018,05,22,22,25,15.30
2018,05,22,22,26,15.20
2018,05,22,22,27,15.20
2018,05,22,22,28,15.10
2018,05,22,22,29,15.10
2018,05,22,22,30,15.10
2018,05,22,22,31,15.10
2018,05,22,22,32,15.10
2018,05,22,22,33,15.10
2018,05,22,22,34,15.10
2018,05,22,22,35,15.10
2018,05,22,22,36,15.10
2018,05,22,22,37,15.10
